Location: Artiguedieu
(43.5000°N, 0.5454°E)
Time: 12:29:14
(UTC+00:00)

NOAA 15 - Visible Passes

Search period start: 20 September 2021 00:00
Search period end: 30 September 2021 00:00
Orbit: 797 x 812 km, 98.7° (Epoch: 20 September)

Date Brightness Start Highest point End Pass type
(mag) Time Alt. Az. Time Alt. Az. Time Alt. Az.
20 Sep 5.1 19:03:00 10° S 19:08:12 64° WSW 19:13:26 10° NNW visible
21 Sep 4.6 18:37:46 10° SSE 18:43:00 78° ENE 18:48:16 10° N visible
21 Sep 7.4 20:20:47 10° WSW 20:23:22 14° W 20:25:58 10° WNW visible
22 Sep 4.9 18:12:54 10° SE 18:17:53 47° ENE 18:22:55 10° N visible
22 Sep 6.9 19:53:45 10° SW 19:57:52 23° W 20:02:02 10° NW visible
23 Sep 6.0 19:27:37 10° SSW 19:32:29 39° W 19:37:24 10° NNW visible
24 Sep 5.0 19:02:00 10° S 19:07:12 65° WSW 19:12:27 10° NNW visible
25 Sep 4.5 18:36:46 10° SSE 18:42:00 76° ENE 18:47:16 10° N visible
25 Sep 7.4 20:19:40 10° WSW 20:22:21 14° W 20:25:04 10° WNW visible
26 Sep 4.9 18:11:55 10° SE 18:16:54 46° ENE 18:21:55 10° N visible
26 Sep 6.8 19:52:42 10° SSW 19:56:52 24° W 20:01:04 10° NW visible
27 Sep 5.9 19:26:35 10° SSW 19:31:29 39° W 19:36:25 10° NNW visible
28 Sep 5.0 19:00:59 10° S 19:06:11 67° WSW 19:11:28 10° NNW visible
29 Sep 4.5 18:35:46 10° SSE 18:40:59 74° ENE 18:46:17 10° N visible
29 Sep 7.4 20:18:32 10° WSW 20:21:20 14° W 20:24:08 10° WNW visible
